Informationen zur Loipe auf der Atzenberger Höhe
 
20.01.2019Höhe
ü. NN
ZeitTemperatur (°C)Nieder-
schlag
Luft-
feuchte
Luft-
druck
Wind
StationaktuellMinimumMaximumaktuellMaximum
Aldingen654 m00:11-6,5-6,5 (05:59)-6,4 (14:43)0,0 l/m²93%1016,10,0 km/h (0 Bft) S-SW14,8 km/h (3 Bft) S-SO (13:07)
Allmannsweiler625 m00:10-9,9-9,9 (00:10)-9,8 (00:00)0,0 l/m²94%1015,30,0 km/h (0 Bft) SO0,0 km/h (0 Bft) SO (00:00)
Allmendingen541 m00:10-10,1-10,1 (07:25)-9,9 (01:00)0,0 l/m²90%1015,70,0 km/h (0 Bft) S-SW16,1 km/h (3 Bft) SO (09:05)
Altshausen574 m00:10-9,2-9,2 (00:01)-9,1 (00:00)0,0 l/m²88%1011,40,0 km/h (0 Bft) W-SW0,0 km/h (0 Bft) W-SW (00:00)
Amstetten-Reutti663 m00:10-10,5-10,5 (00:10)-10,3 (14:40)0,0 l/m²91%1015,30,0 km/h (0 Bft) S27,4 km/h (4 Bft) O (09:45)
Amtzell-Grenis677 m00:10-8,8-8,9 (00:05)-8,8 (00:00)0,0 l/m²87%1016,91,6 km/h (1 Bft) N4,8 km/h (1 Bft) N (00:00)
Aulendorf570 m00:10-8,8-8,8 (00:00)-8,8 (00:00)0,0 l/m²86%1015,00,0 km/h (0 Bft) S-SW0,0 km/h (0 Bft) S-SW (00:00)
Bad Krozingen233 m00:10-3,6-3,8 (08:50)-3,6 (15:35)0,0 l/m²94%1015,40,0 km/h (0 Bft) S-SW6,6 km/h (2 Bft) W-NW (13:25)
Bad Saulgau595 m00:10-8,6-8,6 (00:10)-8,5 (15:15)0,0 l/m²90%1014,41,6 km/h (1 Bft) W-NW12,9 km/h (3 Bft) W (07:00)
Bad Saulgau-Lampertsweiler627 m00:10-8,1-8,1 (00:10)-8,0 (00:00)0,0 l/m²89%1017,70,0 km/h (0 Bft) O-SO0,0 km/h (0 Bft) O-SO (00:00)
Bad Schussenried572 m00:10-8,1-8,1 (00:00)-8,1 (00:00)0,0 l/m²90%1013,50,0 km/h (0 Bft) SW0,0 km/h (0 Bft) SW (00:00)
Bergatreute615 m00:10-9,9-9,9 (00:05)-9,8 (00:00)0,0 l/m²94%1015,71,6 km/h (1 Bft) N1,6 km/h (1 Bft) N (00:10)
Biberach (Riss), Boehringer533 m00:10-8,5-8,5 (00:10)-8,4 (00:10)0,0 l/m²93%1013,75,8 km/h (2 Bft) SW7,9 km/h (2 Bft) SW (00:10)
Biberach (Riss), Realschule553 m00:10-9,8-9,8 (00:00)-9,8 (00:00)0,0 l/m²93%1016,70,0 km/h (0 Bft) O-SO0,0 km/h (0 Bft) N (00:00)
Bodnegg-Rotheidlen677 m00:10-8,8-8,8 (00:00)-8,7 (00:10)0,0 l/m²93%1015,60,0 km/h (0 Bft) W-NW0,0 km/h (0 Bft) W-NW (00:00)
Burgrieden-Hochstetten510 m00:10-9,0-9,0 (00:00)-9,0 (01:00)0,0 l/m²92%1015,66,4 km/h (2 Bft) SO14,5 km/h (3 Bft) SO (08:15)
Ebersbach579 m00:10-9,2-9,3 (00:00)-9,2 (00:10)0,0 l/m²93%1016,40,0 km/h (0 Bft) O-NO0,0 km/h (0 Bft) O (00:00)
Ebersbach-Boos605 m00:10-9,7-9,7 (00:05)-9,6 (00:00)0,0 l/m²94%1016,10,0 km/h (0 Bft) O-SO0,0 km/h (0 Bft) S (00:00)
Ebersbach-Menzenweiler661 m00:10-7,1-7,1 (00:00)-7,1 (00:00)0,0 l/m²96%1015,94,8 km/h (1 Bft) O-NO6,4 km/h (2 Bft) O-NO (00:00)
Erlenmoos645 m00:10-10,1-10,1 (00:05)-9,9 (00:00)0,0 l/m²84%1015,70,0 km/h (0 Bft) SO0,0 km/h (0 Bft) W (00:00)
Ertingen569 m00:15-8,0-8,1 (00:00)-8,0 (00:10)0,0 l/m²92%1015,30,0 km/h (0 Bft) O-SO0,0 km/h (0 Bft) O-SO (00:00)
Friedrichshafen405 m00:10-5,7-5,7 (23:40)-5,7 (15:25)0,0 l/m²89%1015,76,4 km/h (2 Bft) NO11,3 km/h (2 Bft) N-NO (01:00)
Günzburg443 m00:10-7,7-7,7 (00:10)-7,4 (00:00)0,0 l/m²90%1013,00,0 km/h (0 Bft) W-SW3,2 km/h (1 Bft) W-SW (00:00)
Höchsten802 m00:10-5,9-5,9 (00:00)-5,9 (00:00)0,0 l/m²93%1013,50,0 km/h (0 Bft) SO0,0 km/h (0 Bft) N (00:00)
Horgenzell618 m00:00-5,1-5,1 (00:00)-5,1 (00:00)0,0 l/m²90%1013,48,0 km/h (2 Bft) O-NO8,0 km/h (2 Bft) O-NO (00:00)
Hoßkirch632 m00:10-9,2-9,3 (00:05)-9,2 (00:00)0,0 l/m²92%1014,60,0 km/h (0 Bft) SW0,0 km/h (0 Bft) SW (00:00)
Isny, Am Dreifingerbach695 m00:10-10,2-10,3 (00:05)-10,2 (00:10)0,0 l/m²90%1015,73,2 km/h (1 Bft) O3,2 km/h (1 Bft) O (00:10)
Isny, Weidachweg706 m00:10-10,3-10,8 (00:05)-10,3 (00:00)0,0 l/m²89%1017,23,2 km/h (1 Bft) O3,2 km/h (1 Bft) O (00:00)
Kappel-Grafenhausen163 m00:05-3,4-3,4 (08:20)-3,4 (14:45)0,0 l/m²91%1013,20,0 km/h (0 Bft) N6,4 km/h (2 Bft) N-NO (10:25)
Kirchberg an der Iller584 m00:10-8,2-8,2 (22:15)-8,1 (01:00)0,0 l/m²88%1005,20,0 km/h (0 Bft) O-NO8,0 km/h (2 Bft) S-SW (01:55)
Kißlegg-Staibshof709 m00:10-7,7-7,8 (00:05)-7,7 (00:00)0,0 l/m²95%1015,50,0 km/h (0 Bft) N-NO0,0 km/h (0 Bft) N-NO (00:00)
Kressbronn398 m00:14-5,6-5,6 (00:10)-5,4 (00:00)0,0 l/m²86%1014,40,0 km/h (0 Bft) NO0,0 km/h (0 Bft) NO (00:00)
Kreuzthal-Steinberg-Alpe930 m00:00-4,8-4,9 (00:00)-4,6 (00:00)0,0 l/m²96%1015,02,2 km/h (1 Bft) W6,8 km/h (2 Bft) W-NW (00:00)
Kreuzthal-Steinberggipfel1040 m00:10-3,6-3,9 (00:10)-3,3 (00:10)-83%1015,014,4 km/h (3 Bft) SW25,9 km/h (4 Bft) W-SW (00:10)
Kristberg im Montafon (AT)1425 m00:10-8,3-8,3 (00:00)-8,2 (00:10)0,0 l/m²70%1015,36,4 km/h (2 Bft) N-NO9,7 km/h (2 Bft) N (00:00)
Laupheim500 m00:10-8,2-8,2 (00:00)-8,2 (00:00)0,0 l/m²90%1015,00,0 km/h (0 Bft) SW0,0 km/h (0 Bft) SW (00:00)
Lindau-Insel420 m00:00-5,1-5,1 (08:30)-5,1 (14:45)0,0 l/m²86%1014,84,8 km/h (1 Bft) N11,3 km/h (2 Bft) W (13:55)
Lindau-Stadt412 m00:10-6,3-6,3 (07:45)-6,3 (11:50)0,0 l/m²87%1015,13,2 km/h (1 Bft) N-NO9,7 km/h (2 Bft) N (01:10)
Maierhöfen im Allgäu733 m00:15-14,5-14,8 (00:00)-14,5 (00:15)0,0 l/m²89%1017,01,6 km/h (1 Bft) SW1,6 km/h (1 Bft) SW (00:15)
Maselheim-Sulmingen548 m00:10-10,1-10,1 (00:05)-10,0 (14:15)0,0 l/m²91%1017,13,2 km/h (1 Bft) O-SO12,9 km/h (3 Bft) SO (08:40)
Mietingen-Baltringen528 m00:10-9,4-9,4 (00:10)-9,3 (00:00)0,0 l/m²87%1017,50,0 km/h (0 Bft) W1,6 km/h (1 Bft) W (00:05)
Mindelheim-Apfeltrach620 m00:11-14,2-14,2 (00:08)-14,1 (00:00)0,0 l/m²88%1017,03,2 km/h (1 Bft) S4,8 km/h (1 Bft) S (00:01)
Neresheim552 m00:00-8,8-8,8 (00:00)-8,8 (00:00)0,0 l/m²94%1012,20,0 km/h (0 Bft) S0,0 km/h (0 Bft) S (00:00)
Neukirch570 m00:10-8,3-8,3 (00:05)-8,2 (13:00)0,0 l/m²92%1015,86,4 km/h (2 Bft) NO9,7 km/h (2 Bft) W-NW (11:50)
Ochsenhausen, Birkenstraße613 m00:10-11,5-11,5 (00:05)-11,4 (14:15)0,0 l/m²84%1016,24,8 km/h (1 Bft) O11,3 km/h (2 Bft) O-NO (08:05)
Ochsenhausen, Unt. Wiesen575 m00:10-11,3-11,3 (00:05)-11,2 (00:00)0,0 l/m²89%1017,36,4 km/h (2 Bft) S-SW6,4 km/h (2 Bft) S (00:00)
Ostrach619 m00:05-8,9-8,9 (23:45)-8,9 (14:40)0,0 l/m²92%1014,11,6 km/h (1 Bft) S-SO12,9 km/h (3 Bft) N (07:10)
Ravensburg428 m00:10-6,8-6,8 (00:00)-6,8 (00:00)0,0 l/m²90%1014,98,0 km/h (2 Bft) N-NW8,0 km/h (2 Bft) N (00:00)
Ravensburg-Wernsreute511 m00:10-7,1-7,1 (22:45)-7,1 (15:25)0,0 l/m²91%1017,68,0 km/h (2 Bft) N19,3 km/h (3 Bft) N-NO (01:05)
Reichenbach an der Fils343 m00:10-6,6-6,6 (00:05)-6,5 (00:00)0,0 l/m²86%1017,011,3 km/h (2 Bft) O14,5 km/h (3 Bft) O (00:05)
Reinstetten559 m00:10-11,1-11,1 (00:05)-11,0 (00:00)0,0 l/m²91%1016,30,0 km/h (0 Bft) S-SW0,0 km/h (0 Bft) S-SW (00:00)
Riedlingen530 m00:10-6,8-6,9 (00:00)-6,8 (00:10)0,0 l/m²93%1015,40,0 km/h (0 Bft) O-NO0,0 km/h (0 Bft) O-NO (00:00)
Schemmerhofen520 m00:10-9,3-9,3 (00:05)-9,2 (00:00)0,0 l/m²92%1015,20,0 km/h (0 Bft) SW0,0 km/h (0 Bft) SW (00:00)
Silbertal im Montafon (AT)884 m00:10-7,8-7,8 (00:00)-7,8 (00:00)0,0 l/m²89%1017,50,0 km/h (0 Bft) SO0,0 km/h (0 Bft) SO (00:00)
Tettnang466 m00:10-6,1-6,1 (00:05)-6,0 (00:00)0,0 l/m²87%1014,01,6 km/h (1 Bft) NO3,2 km/h (1 Bft) NO (00:00)
Tuttlingen662 m00:10-5,8-5,9 (00:05)-5,8 (00:00)0,0 l/m²90%1015,50,0 km/h (0 Bft) O-SO3,2 km/h (1 Bft) O-SO (00:00)
Ummendorf547 m00:10-10,6-10,6 (00:10)-10,2 (00:00)0,0 l/m²88%1016,71,6 km/h (1 Bft) O-SO3,2 km/h (1 Bft) O-SO (00:05)
Ummendorf-Fischbach558 m00:10-11,7-11,7 (00:05)-11,4 (00:00)0,0 l/m²89%1017,10,0 km/h (0 Bft) S0,0 km/h (0 Bft) S (00:00)
Waldburg707 m00:10-8,4-8,4 (00:05)-8,3 (00:00)0,0 l/m²93%1015,20,0 km/h (0 Bft) N0,0 km/h (0 Bft) N (00:00)
Waltenhofen im Allgäu720 m00:10-13,7-13,8 (00:00)-13,7 (00:05)0,0 l/m²90%1016,40,0 km/h (0 Bft) S-SW0,0 km/h (0 Bft) S-SW (00:00)
Weingarten500 m00:10-8,7-8,7 (00:10)-8,6 (00:00)0,0 l/m²89%1015,54,8 km/h (1 Bft) O4,8 km/h (1 Bft) O (00:10)

Werbung
niederschlagsdatenbank | info | login - erfassung

Sollten Sie Interesse haben, an der Niederschlagsdatenbank teilzunehmen, finden Sie > hier < weitere Informationen.

Niederschlagsdaten der Station Aulendorf - Steinenbacher Weg 33

Rolf Eisemann

Niederschlagsstation aufgenommen ins Stationsnetz der Wetterwarte Süd am 26.08.2010
Monat: .
Anmerkung:0,0 = nicht messbarer Niederschlag
 -  = kein Niederschlag

Stationsdaten

Höhe

576 m

Lage

Auf Google Maps ansehen

Beschreibung

Die Station liegt im Süden von Aulendorf an einer leichten Hangkante zum Schussenbecken und ca. 150 m vom Stadtrand entfernt. Von der Höhenlage her liegt sie fast genau auf der Höhe, die für Aulendorf in topografischen Karten allgemein als Höhe angegeben wird (574,9 m). Dabei erstreckt sich das Stadtgebiet in einer Höhenentwicklung von 540 - 676 m über NN. Den höchsten Punkt bildet nicht, wie häufig vermutet, der Standort der Hohkreuzkapelle (667,7 m), sondern ein Punkt im Wald zwischen der Hohkreuzkapelle und Ebisweiler. Gemessen wird mit einer "Profigarden 257 041" von HEIPEI aus Oldenburg
< Dezember 2018

Januar 2019

TagNiederschlagBemerkung
01.3,8
Schneeregen Schnee
02.2,0
Schnee
03.1,0
Schnee Graupel
Schneehöhe: 1 cm
04.3,6
Ablesung um 10 Uhr
Schnee Graupel Schneegriesel
Schneehöhe: 2 cm
05.15,2
Schnee Graupel
Schneehöhe: 6 cm
06.8,0
Nieselregen Schneeregen Schnee
Schneehöhe: 14 cm
07.2,2
Nieselregen Schneeregen
Schneehöhe: 14 cm
08.2,9
Nieselregen Schneeregen Schnee Schneegriesel
Schneehöhe: 11 cm
09.8,5
gemessene Niederschlagsmenge vermutlich ungenau, da der Messbecher eine übervolle "Krone" hatte
Schnee Schneegriesel
Schneehöhe: 11 cm
10.6,0
gemessene Niederschlagsmenge vermutlich ungenau, da der Messbecher wieder eine übervolle "Krone" hatte
Schnee Schneegriesel
Schneehöhe: 21 cm
11.7,5
...wieder "gekrönter" Messbecher...
Schnee Schneegriesel
Schneehöhe: 24 cm
12.8,0
Regen Schneeregen Schnee
Schneehöhe: 26 cm
13.12,0
Ablesung um 6:50 Uhr
Regen Schneeregen
Schneehöhe: 20 cm
14.3,2
Schneeregen Schnee
Schneehöhe: 10 cm
15.-
Schneehöhe: 9 cm
16.-
Schneehöhe: 7 cm
17.0,7
Schneeregen Schnee
Schneehöhe: 3 cm
18.-
Schneehöhe: Reste
19.-
Schneehöhe: Reste
20.-
21.-
22.-
23.-
24.-
25.-
26.-
27.-
28.-
29.-
30.-
31.-
Gesamt:84,6 
Die Spalten "Tag" und "Niederschlag" lassen sich durch Klicken auf den Spaltenkopf sortieren.
Die Angaben sind in l/m².

< Dezember 2018


Monats- und Jahresniederschlag


Wetterbeobachtungen Legende:

  • Regen
  • Nieselregen
  • Schneeregen
  • Schnee
  • Graupel
  • Eiskörner
  • Hagel
  • Bodennebel
  • Gewitter
  • Nebelnässe
  • Schneegriesel

Grafische Darstellung der Niederschläge der Station Aulendorf Januar 2019

 
wetterstationen
wetterstationen
- derzeit 73 Stationen
niederschlagsdatenbank
wetterstationen
- kartographische Darstellung
niederschlagsdatenbank
niederschlagsstationen
- derzeit 103 Stationen
niederschlagsdatenbank
niederschlagsstationen
- kartographische Darstellung
 
 
Sa. 7.30 Uhr - So. 7.30 Uhr (MEZ)
1.Füramoos0,0 l/m²
2.Ulm0,0 l/m²
 
  treffpunkt & service
--- Anzeigen --------------------------------
zugriffe:
insgesamt: 40.647.301
aktueller monat: 320.382
heute: 116
momentan online: 30
 
 
monatshöchstwert: 653.625
vorheriger monat: 400.931
gestern: 13.178
tageshöchstwert: 45.129
 
wetterwarte süd
 
konradstraße 3
info@wetterwarte-sued.com
roland roth
 
88427 bad schussenried